When you browse on this site, cookies collect data to enhance your experience and personalize the content and advertising you see.
Visit our Privacy Policy to learn more. By continuing to use the site, you agree to this use of cookies and data.
  • In Schweiz
  • Länderverzeichnis
  • Für 7 Tage
  • Wassertemperatur
  • Satellitenkarten
  • Wetterkarte
  • Widgets
  • user-avatar
    Anmelden

    Stündliche Wetter Ozerki

    Heute, 20 Februar, Mittwoch

    Zeit Temperatur Niederschläge Wind Luftdruck Luftfeuchtigkeit
    00:00 -15°C° 0 mm 1 m/S 741 mmHg 97%
    01:00 -15°C° 0 mm 1 m/S 741 mmHg 97%
    02:00 -16°C° 0 mm 1 m/S 741 mmHg 97%
    03:00 -17°C° 0 mm 1 m/S 742 mmHg 98%
    04:00 -18°C° 0 mm 1 m/S 741 mmHg 98%
    05:00 -18°C° 0 mm 1 m/S 742 mmHg 99%
    06:00 -19°C° 0 mm 1 m/S 742 mmHg 99%
    07:00 -19°C° 0 mm 1 m/S 742 mmHg 99%
    08:00 -18°C° 0 mm 1 m/S 743 mmHg 96%
    09:00 -16°C° 0 mm 1 m/S 743 mmHg 93%
    10:00 -14°C° 0 mm 1 m/S 743 mmHg 90%
    11:00 -13°C° 0 mm 1 m/S 743 mmHg 88%
    12:00 -11°C° 0 mm 1 m/S 743 mmHg 86%
    13:00 -12°C° 0 mm 2 m/S 743 mmHg 84%
    14:00 -12°C° 0 mm 2 m/S 743 mmHg 85%
    15:00 -12°C° 0 mm 2 m/S 743 mmHg 86%
    16:00 -10°C° 0 mm 2 m/S 743 mmHg 88%
    17:00 -13°C° 0 mm 2 m/S 743 mmHg 90%
    18:00 -14°C° 0 mm 2 m/S 743 mmHg 92%
    19:00 -15°C° 0 mm 2 m/S 743 mmHg 94%
    20:00 -15°C° 0 mm 3 m/S 742 mmHg 93%
    21:00 -15°C° 0 mm 3 m/S 742 mmHg 91%
    22:00 -14°C° 0 mm 3 m/S 742 mmHg 90%
    23:00 -14°C° 0 mm 4 m/S 741 mmHg 90%

    Morgen, 21 Februar, Donnerstag

    Zeit Temperatur Niederschläge Wind Luftdruck Luftfeuchtigkeit
    00:00 -12°C° 0 mm 4 m/S 741 mmHg 89%
    01:00 -12°C° 0 mm 5 m/S 741 mmHg 89%
    02:00 -13°C° 0 mm 5 m/S 740 mmHg 89%
    03:00 -13°C° 0 mm 5 m/S 740 mmHg 89%
    04:00 -13°C° 0 mm 5 m/S 740 mmHg 89%
    05:00 -12°C° 0.1 mm 5 m/S 740 mmHg 89%
    06:00 -12°C° 0.1 mm 5 m/S 740 mmHg 89%
    07:00 -11°C° 0.1 mm 5 m/S 739 mmHg 90%
    08:00 -10°C° 0.1 mm 5 m/S 740 mmHg 90%
    09:00 -10°C° 0.1 mm 5 m/S 740 mmHg 90%
    10:00 -8°C° 0.1 mm 5 m/S 740 mmHg 89%
    11:00 -7°C° 0.1 mm 5 m/S 740 mmHg 89%
    12:00 -7°C° 0.1 mm 5 m/S 740 mmHg 89%
    13:00 -7°C° 0.1 mm 5 m/S 740 mmHg 89%
    14:00 -7°C° 0.1 mm 5 m/S 740 mmHg 89%
    15:00 -7°C° 0.1 mm 5 m/S 740 mmHg 89%
    16:00 -7°C° 0.1 mm 5 m/S 740 mmHg 89%
    17:00 -7°C° 0 mm 5 m/S 741 mmHg 89%
    18:00 -7°C° 0 mm 5 m/S 741 mmHg 89%
    19:00 -7°C° 0 mm 4 m/S 741 mmHg 89%
    20:00 -7°C° 0.1 mm 4 m/S 742 mmHg 89%
    21:00 -7°C° 0.1 mm 4 m/S 742 mmHg 89%
    22:00 -7°C° 0.1 mm 4 m/S 742 mmHg 89%
    23:00 -7°C° 0.1 mm 4 m/S 742 mmHg 89%

    übermorgen, 22 Februar, Freitag

    Zeit Temperatur Niederschläge Wind Luftdruck Luftfeuchtigkeit
    00:00 -5°C° 0.1 mm 4 m/S 742 mmHg 89%
    01:00 -5°C° 0.1 mm 4 m/S 742 mmHg 90%
    02:00 -5°C° 0.1 mm 4 m/S 742 mmHg 90%
    03:00 -4°C° 0.1 mm 4 m/S 742 mmHg 89%
    04:00 -4°C° 0.1 mm 4 m/S 742 mmHg 89%
    05:00 -4°C° 0 mm 4 m/S 742 mmHg 89%
    06:00 -4°C° 0 mm 4 m/S 742 mmHg 89%
    07:00 -4°C° 0 mm 3 m/S 742 mmHg 89%
    08:00 -4°C° 0 mm 3 m/S 742 mmHg 89%
    09:00 -3°C° 0 mm 4 m/S 742 mmHg 89%
    10:00 -3°C° 0 mm 4 m/S 742 mmHg 88%
    11:00 -2°C° 0.2 mm 4 m/S 742 mmHg 89%
    12:00 -2°C° 0.2 mm 4 m/S 742 mmHg 89%
    13:00 -1°C° 0.2 mm 4 m/S 742 mmHg 89%
    14:00 0°C° 0.1 mm 3 m/S 742 mmHg 89%
    15:00 0°C° 0.1 mm 3 m/S 742 mmHg 88%
    16:00 0°C° 0.1 mm 3 m/S 742 mmHg 87%
    17:00 -1°C° 0 mm 3 m/S 742 mmHg 87%
    18:00 -2°C° 0 mm 3 m/S 742 mmHg 87%
    19:00 -4°C° 0 mm 3 m/S 742 mmHg 87%
    20:00 -4°C° 0.2 mm 3 m/S 742 mmHg 88%
    21:00 -5°C° 0.2 mm 3 m/S 743 mmHg 89%
    22:00 -5°C° 0.2 mm 4 m/S 743 mmHg 89%
    23:00 -5°C° 0.2 mm 3 m/S 743 mmHg 90%

    23 Februar, Samstag

    Zeit Temperatur Niederschläge Wind Luftdruck Luftfeuchtigkeit
    00:00 -5°C° 0.2 mm 3 m/S 744 mmHg 91%
    01:00 -5°C° 0.2 mm 3 m/S 744 mmHg 91%
    02:00 -7°C° 0 mm 3 m/S 745 mmHg 91%
    03:00 -9°C° 0 mm 3 m/S 746 mmHg 92%
    04:00 -10°C° 0 mm 2 m/S 746 mmHg 92%
    05:00 -12°C° 0 mm 2 m/S 747 mmHg 93%
    06:00 -12°C° 0 mm 2 m/S 747 mmHg 93%
    07:00 -13°C° 0 mm 2 m/S 748 mmHg 94%
    08:00 -12°C° 0 mm 3 m/S 748 mmHg 92%
    09:00 -10°C° 0 mm 3 m/S 748 mmHg 90%
    10:00 -8°C° 0 mm 3 m/S 749 mmHg 88%
    11:00 -7°C° 0.1 mm 3 m/S 749 mmHg 86%
    12:00 -7°C° 0.1 mm 3 m/S 749 mmHg 84%
    13:00 -6°C° 0.1 mm 3 m/S 749 mmHg 83%
    14:00 -6°C° 0.1 mm 3 m/S 749 mmHg 84%
    15:00 -7°C° 0.1 mm 3 m/S 749 mmHg 86%
    16:00 -7°C° 0.1 mm 3 m/S 749 mmHg 87%
    17:00 -8°C° 0.1 mm 3 m/S 750 mmHg 89%
    18:00 -9°C° 0.1 mm 3 m/S 750 mmHg 90%
    19:00 -10°C° 0.1 mm 3 m/S 750 mmHg 92%
    20:00 -10°C° 0.1 mm 3 m/S 750 mmHg 92%
    21:00 -9°C° 0.1 mm 3 m/S 750 mmHg 92%
    22:00 -9°C° 0.1 mm 3 m/S 750 mmHg 92%
    23:00 -9°C° 0.1 mm 3 m/S 751 mmHg 92%

    24 Februar, Sonntag

    Zeit Temperatur Niederschläge Wind Luftdruck Luftfeuchtigkeit
    00:00 -9°C° 0.1 mm 3 m/S 751 mmHg 93%
    01:00 -9°C° 0.1 mm 3 m/S 751 mmHg 93%
    02:00 -9°C° 0.1 mm 3 m/S 751 mmHg 94%
    03:00 -10°C° 0.1 mm 3 m/S 751 mmHg 94%
    04:00 -10°C° 0.1 mm 3 m/S 751 mmHg 94%
    05:00 -10°C° 0 mm 3 m/S 752 mmHg 95%
    06:00 -12°C° 0 mm 3 m/S 752 mmHg 95%
    07:00 -10°C° 0 mm 2 m/S 752 mmHg 96%
    08:00 -10°C° 0.1 mm 3 m/S 752 mmHg 94%
    09:00 -10°C° 0.1 mm 4 m/S 752 mmHg 92%
    10:00 -9°C° 0.1 mm 4 m/S 752 mmHg 91%
    11:00 -10°C° 0.1 mm 4 m/S 752 mmHg 90%
    12:00 -10°C° 0.1 mm 4 m/S 752 mmHg 90%
    13:00 -11°C° 0.1 mm 5 m/S 752 mmHg 89%
    14:00 -11°C° 0.1 mm 5 m/S 752 mmHg 89%
    15:00 -11°C° 0.1 mm 5 m/S 752 mmHg 89%
    16:00 -11°C° 0.1 mm 5 m/S 752 mmHg 89%
    17:00 -11°C° 0 mm 5 m/S 752 mmHg 89%
    18:00 -12°C° 0 mm 5 m/S 752 mmHg 89%
    19:00 -12°C° 0 mm 5 m/S 752 mmHg 89%
    20:00 -12°C° 0 mm 5 m/S 752 mmHg 89%
    21:00 -12°C° 0 mm 5 m/S 752 mmHg 89%
    22:00 -13°C° 0 mm 5 m/S 752 mmHg 89%
    23:00 -13°C° 0.1 mm 5 m/S 751 mmHg 90%

    25 Februar, Montag

    Zeit Temperatur Niederschläge Wind Luftdruck Luftfeuchtigkeit
    00:00 -13°C° 0.1 mm 5 m/S 751 mmHg 91%
    01:00 -14°C° 0.1 mm 5 m/S 751 mmHg 91%
    02:00 -14°C° 0.1 mm 5 m/S 751 mmHg 91%
    03:00 -14°C° 0.1 mm 5 m/S 751 mmHg 91%
    04:00 -14°C° 0.1 mm 4 m/S 751 mmHg 92%
    05:00 -14°C° 0.1 mm 4 m/S 750 mmHg 92%
    06:00 -14°C° 0.1 mm 4 m/S 750 mmHg 92%
    07:00 -14°C° 0.1 mm 4 m/S 750 mmHg 93%
    08:00 -14°C° 0 mm 4 m/S 749 mmHg 93%
    09:00 -12°C° 0 mm 4 m/S 749 mmHg 92%
    10:00 -12°C° 0 mm 4 m/S 749 mmHg 92%
    11:00 -11°C° 0.1 mm 4 m/S 749 mmHg 92%
    12:00 -11°C° 0.1 mm 5 m/S 748 mmHg 91%
    13:00 -10°C° 0.1 mm 5 m/S 748 mmHg 90%
    14:00 -10°C° 0 mm 5 m/S 747 mmHg 90%
    15:00 -10°C° 0 mm 5 m/S 747 mmHg 90%
    16:00 -10°C° 0 mm 5 m/S 747 mmHg 89%
    17:00 -10°C° 0.1 mm 5 m/S 746 mmHg 89%
    18:00 -10°C° 0.1 mm 5 m/S 746 mmHg 89%
    19:00 -10°C° 0.1 mm 5 m/S 746 mmHg 89%
    20:00 -10°C° 0.1 mm 5 m/S 745 mmHg 89%
    21:00 -10°C° 0.1 mm 5 m/S 745 mmHg 89%
    22:00 -10°C° 0.1 mm 5 m/S 744 mmHg 89%
    23:00 -10°C° 0.1 mm 5 m/S 744 mmHg 89%
    Mehr zeigen